Weather History for Havre, MT

Change the Weather History Date:

Sunday, June 30, 2013

  Actual Average Record
Temperature  
Mean Temperature 76 °F 66 °F  
Max Temperature 89 °F 80 °F 102 °F (1990)
Min Temperature 62 °F 51 °F 41 °F (1968)
Degree Days  
Heating Degree Days 0 2  
Month to date heating degree days 113 134  
Since 1 June heating degree days 113 133  
Since 1 July heating degree days 8018 8221  
Cooling Degree Days 11 3  
Month to date cooling degree days 43 48  
Year to date cooling degree days 50 59  
Since 1 June cooling degree days 43 48  
Growing Degree Days 26 (Base 50)    
Moisture  
Dew Point 59 °F    
Average Humidity 59    
Maximum Humidity 81    
Minimum Humidity 36    
Precipitation  
Precipitation T in 0.07 in 0.76 in (1910)
Month to date precipitation 3.89 2.19  
Year to date precipitation 11.21 5.92  
Snow  
Snow 0.00 in 0.00 in T in (1910)
Month to date snowfall 0.0 0.0  
Since 1 June snowfall 0.0 0.0  
Since 1 July snowfall 50.6 39.0  
Snow Depth 0.00 in    
Sea Level Pressure  
Sea Level Pressure 30.03 in    
Wind  
Wind Speed 7 mph (NE)    
Max Wind Speed 15 mph    
Max Gust Speed 18 mph    
Visibility 10 miles    
Events      
T = Trace of Precipitation, MM = Missing Value Source: NWS Daily Summary

Daily Weather History Graph

Daily Weather History Graph

Search for Another Location

Airport:

Trip Planner

Search our weather history database for the weather conditions in past years. The results will help you decide how hot, cold, wet, or windy it might be!

Date:

Astronomy

Jun. 30, 2013 Rise Set
Actual Time 5:20 AM MDT 9:24 PM MDT
Civil Twilight 4:38 AM MDT 10:06 PM MDT
Nautical Twilight 3:40 AM MDT 11:04 PM MDT
Astronomical Twilight 1:52 AM MDT 12:50 AM MDT
Moon 12:46 AM MDT (6/30) 2:21 PM MDT (6/30)
Length of Visible Light 17h 27m
Length of Day
16h 03m
Last Quarter, 45% of the Moon is Illuminated
Jun 30
Last Quarter
Jul 8
New
Jul 15
First Quarter
Jul 22
Full
Jul 29
Last Quarter

Hourly Weather History & Observations

Time (MDT) Temp. Heat Index Dew Point Humidity Pressure Visibility Wind Dir Wind Speed Gust Speed Precip Events Conditions
12:53 AM 68.0 °F - 57.0 °F 68% 30.04 in 10.0 mi ENE 12.7 mph - N/A   Partly Cloudy
1:53 AM 66.0 °F - 57.0 °F 73% 30.02 in 10.0 mi East 12.7 mph - N/A   Clear
2:53 AM 64.9 °F - 57.0 °F 75% 29.99 in 10.0 mi ENE 12.7 mph - N/A   Clear
3:53 AM 64.0 °F - 55.9 °F 75% 29.99 in 10.0 mi ENE 12.7 mph - N/A   Clear
4:53 AM 63.0 °F - 55.9 °F 78% 29.99 in 10.0 mi ENE 10.4 mph - N/A   Clear
5:53 AM 62.1 °F - 55.9 °F 80% 30.00 in 10.0 mi ENE 11.5 mph - N/A   Clear
6:53 AM 64.0 °F - 57.0 °F 78% 30.01 in 10.0 mi ENE 9.2 mph - N/A   Clear
7:53 AM 69.1 °F - 59.0 °F 70% 30.02 in 10.0 mi ENE 10.4 mph - N/A   Clear
8:53 AM 71.1 °F - 59.0 °F 66% 30.07 in 10.0 mi North 6.9 mph - N/A   Scattered Clouds
9:53 AM 72.0 °F - 59.0 °F 64% 30.07 in 10.0 mi ENE 4.6 mph - N/A   Mostly Cloudy
10:53 AM 73.9 °F - 61.0 °F 64% 30.02 in 10.0 mi East 6.9 mph - 0.00 in   Partly Cloudy
11:53 AM 81.0 °F 81.9 °F 62.1 °F 52% 30.03 in 10.0 mi ENE 6.9 mph - N/A   Clear
12:53 PM 84.0 °F 84.9 °F 63.0 °F 49% 30.02 in 10.0 mi NNE 6.9 mph - N/A   Clear
1:53 PM 86.0 °F 86.8 °F 63.0 °F 46% 30.03 in 10.0 mi Variable 6.9 mph - N/A   Clear
2:53 PM 87.1 °F 86.7 °F 60.1 °F 40% 30.03 in 10.0 mi Variable 6.9 mph - N/A   Clear
3:53 PM 88.0 °F 86.9 °F 57.9 °F 36% 30.02 in 10.0 mi West 6.9 mph - N/A   Clear
4:53 PM 88.0 °F 87.1 °F 59.0 °F 37% 30.02 in 10.0 mi WNW 5.8 mph - N/A   Clear
5:53 PM 88.0 °F 86.9 °F 57.9 °F 36% 30.02 in 10.0 mi NW 4.6 mph - N/A   Clear
6:53 PM 87.1 °F 86.7 °F 60.1 °F 40% 30.02 in 10.0 mi NW 3.5 mph - N/A   Clear
7:53 PM 84.9 °F 85.4 °F 62.1 °F 46% 30.02 in 10.0 mi NW 4.6 mph - N/A   Clear
8:53 PM 81.0 °F 81.9 °F 62.1 °F 52% 30.03 in 10.0 mi North 4.6 mph - N/A   Clear
9:53 PM 75.9 °F - 61.0 °F 60% 30.06 in 10.0 mi North 3.5 mph - N/A   Clear
10:53 PM 72.0 °F - 60.1 °F 66% 30.07 in 10.0 mi NE 9.2 mph - N/A   Clear
11:53 PM 66.9 °F - 61.0 °F 81% 30.07 in 10.0 mi Calm Calm - N/A   Clear